User: anonymous   Login
Location: Unspecified
(0.0000°N, 0.0000°E)
Time: 20:42:19
(UTC+00:00)
Language:

MUOS - Orbit

View from above orbital plane
View from above orbital plane
View from above satellite
View from above satellite

Ground track
Ground track

The orbit data is extracted from the following two-line orbital elements,

1 38093U 12009A   21136.81388168 -.00000118  00000-0  00000-0 0  9992
2 38093   2.6082  19.6913 0058321   2.5917  45.4477  1.00270741 33824
Epoch (UTC): 16 May 2021 19:31:59
Eccentricity: 0.0058321
inclination: 2.6082°
perigee height: 35540 km
apogee height: 36032 km
right ascension of ascending node: 19.6913°
argument of perigee: 2.5917°
revolutions per day: 1.00270741
mean anomaly at epoch: 45.4477°
orbit number at epoch: 3382

The dashed part of the orbit path shows where the satellite is in the earth's shadow,  

DLR